World > North America > United States > Pennsylvania

Big Run, Pennsylvania Regional Weather

Lat: 40.97N, Lon: 78.88W
Wx Zone: PAZ016Web Search

Helpful Tip: Type the letters wx in the search engine next time you need to find us.

Feedback


°F Click to change Big Run hourly weather to Imperial units.Click to change Big Run hourly weather to Metric units. °C
Big Run Weather Map
UTC Time: 5/16/2021, 16:18
Your Time:

Big Run, PA Regional Weather

Expires:202105161700;;209922
ASUS41 KCTP 161610
RWRCTP

REGIONAL WEATHER ROUNDUP
NATIONAL WEATHER SERVICE STATE COLLEGE PA
1200 PM EDT SUN MAY 16 2021

Note: "fair" indicates few or no clouds below 12,000 feet with no 
significant weather and/or obstructions to visibility.

* = STATION THAT DOES NOT REPORT PRECIPITATION /E.G. RAIN...SNOW...ETC/
    THUNDER OR FOG.


PAZ002>004-007>009-013>016-020>023-029>032-161700-
WESTERN PENNSYLVANIA
  
CITY           SKY/WX    TMP DP  RH WIND       PRES   REMARKS
ERIE           PTSUNNY   66  36  32 W9        30.26S                  
MEADVILLE      MOSUNNY   64  36  35 VRB5      30.27S                  
FRANKLIN       PTSUNNY   63  36  36 VRB3      30.27F                  
NEW CASTLE     CLOUDY    65  39  38 W3        30.27S                  
BEAVER COUNTY  PTSUNNY   67  40  36 S3        30.26F                  
BUTLER         MOSUNNY   65  37  35 SE8       30.27S                  
PITTSBURGH INT MOSUNNY   67  36  31 NE8       30.25S                  
PITTSBURGH     PTSUNNY   65  42  43 E6        30.25F                  
INDIANA*       MOSUNNY   63  39  42 CALM      30.31S                  
LATROBE        PTSUNNY   61  43  51 CALM      30.28S                  
WASHINGTON CO* CLOUDY    64  39  39 W7        30.29S                  
$$


SKY/WX - Weather  TMP - Temperature  DP - Dew Point  RH - Relative Humidity
WIND - Wind Direction/Speed PRES - Barometric Pressure VSB - Visibility
WCI - Wind Chill Index E13G22 Wind - East Wind 13 mph/Gusts of 22 mph